CDT,Max TemperatureF,Mean TemperatureF,Min TemperatureF,Max Dew PointF,MeanDew PointF,Min DewpointF,Max Humidity, Mean Humidity, Min Humidity, Max Sea Level PressureIn, Mean Sea Level PressureIn, Min Sea Level PressureIn, Max VisibilityMiles, Mean VisibilityMiles, Min VisibilityMiles, Max Wind SpeedMPH, Mean Wind SpeedMPH, Max Gust SpeedMPH,PrecipitationIn, CloudCover, Events, WindDirDegrees
2013-8-1,94,84,74,76,74,72,100,75,49,30.03,29.98,29.94,10,9,4,13,5,17,0.00,1,,31
2013-8-2,94,83,72,79,74,71,100,78,56,30.00,29.97,29.93,10,9,6,9,3,12,0.00,1,,127
2013-8-3,93,84,74,77,75,73,100,78,56,30.06,30.01,29.94,10,8,5,13,3,17,0.00,0,,234
2013-8-4,94,84,73,78,74,72,100,76,52,30.10,30.04,29.99,10,8,1,8,2,10,0.00,1,,141
2013-8-5,96,86,75,76,75,73,94,72,49,30.02,29.97,29.90,10,9,5,10,4,15,0.00,1,,178
2013-8-6,96,86,76,75,73,70,94,69,43,29.95,29.90,29.86,10,10,10,12,5,15,0.00,0,,182
2013-8-7,97,86,75,75,71,66,94,66,38,29.95,29.89,29.85,10,10,9,12,4,15,0.00,0,,187
2013-8-8,96,85,74,75,72,69,100,72,43,29.94,29.89,29.85,10,8,0,12,4,16,0.00,0,,163
2013-8-9,96,83,70,76,71,68,93,68,43,29.99,29.95,29.91,10,9,7,13,2,18,0.00,0,,181
2013-8-10,96,85,74,77,74,72,94,72,49,30.06,30.01,29.97,10,10,7,13,3,16,0.00,0,Thunderstorm,134
2013-8-11,94,84,73,75,72,70,100,73,46,30.10,30.05,30.00,10,10,7,12,4,24,0.00,0,,172
2013-8-12,94,84,73,76,73,69,100,75,49,30.08,30.02,29.94,10,10,10,18,5,24,T,1,Thunderstorm,194
2013-8-13,89,81,72,75,73,70,93,75,57,30.04,29.99,29.92,10,10,7,16,4,23,0.00,4,,35
2013-8-14,85,75,64,72,68,57,93,72,51,30.07,30.02,29.96,10,10,9,18,8,23,T,5,,30
2013-8-15,84,71,58,62,58,56,93,67,40,30.09,30.04,29.98,10,10,10,10,4,14,0.00,0,,13
2013-8-16,83,70,57,62,59,56,93,69,45,30.06,30.03,30.01,10,10,10,15,5,21,0.00,1,,355
2013-8-17,85,73,60,68,65,59,97,76,55,30.07,30.04,29.99,10,9,5,14,6,18,0.00,3,,356
2013-8-18,90,77,63,68,66,64,100,72,44,30.09,30.05,30.01,10,7,0,14,5,18,0.00,3,Fog,25
2013-8-19,91,78,64,70,66,62,100,71,41,30.10,30.04,29.98,10,9,3,9,2,16,0.00,2,,54
2013-8-20,92,80,67,69,65,59,93,65,36,30.09,30.03,29.99,10,10,7,10,2,15,0.00,1,,87
2013-8-21,94,80,66,71,68,65,93,67,41,30.12,30.07,30.01,10,10,8,12,2,20,0.00,1,,142
2013-8-22,97,83,69,79,71,67,100,70,40,30.12,30.03,29.96,10,8,0,30,3,40,1.01,3,Rain-Thunderstorm,116
2013-8-23,96,85,73,75,72,69,100,72,43,30.05,30.00,29.94,10,9,7,22,3,25,0.00,1,Thunderstorm,82
2013-8-24,95,83,70,75,72,69,100,72,43,30.10,30.05,30.01,10,9,4,29,2,36,0.01,1,,85
2013-8-25,93,82,70,73,70,67,100,72,44,30.19,30.15,30.10,10,10,9,14,5,18,0.00,1,,93
2013-8-26,93,81,69,72,67,61,100,69,38,30.22,30.15,30.09,10,10,6,15,4,21,0.00,1,,114
2013-8-27,93,79,65,72,67,63,93,66,39,30.15,30.08,30.02,10,10,8,8,1,14,0.00,0,,202
2013-8-28,97,84,70,70,66,63,90,63,35,30.09,30.04,29.99,10,10,8,12,3,15,0.00,2,,87
2013-8-29,96,82,68,69,65,62,90,62,34,30.09,30.03,29.97,10,10,6,12,2,17,0.00,1,,105
2013-8-30,98,83,68,70,67,64,90,63,35,30.03,29.97,29.90,10,9,6,9,3,14,0.00,0,,152
2013-8-31,97,85,72,72,69,67,90,64,38,29.95,29.89,29.82,10,9,5,14,4,23,0.00,0,,178